FW3021 Weather Reports


Display with metric or nautical units.
time (UTC)temp
F
wind
direction
speed
MPH
gust
MPH
rain 1hr
in
rain 24hr
in
rain mn
in
humidity
%
barometer
mb
20260905025518 63 0.0 0.0 0.00 0.25 0.21 80 1017.0
20260905024517 64 0.0 0.0 0.00 0.31 0.21 80 1017.0
20260905023517 64 0.0 0.0 0.00 0.33 0.21 80 1017.0
20260905022517 64 0.0 0.0 0.00 0.34 0.21 79 1017.0
20260905021517 64 0.0 2.0 0.00 0.34 0.21 79 1016.8
20260905020517 64 0 1.0 3.0 0.00 0.34 0.21 79 1016.9
20260905015517 64 0 1.0 4.0 0.00 0.34 0.21 79 1016.9
20260905014517 64 0 1.0 5.0 0.00 0.38 0.21 79 1016.9
20260905013517 64 0 1.0 3.0 0.00 0.38 0.21 80 1016.7
20260905012537 64 0 1.0 3.0 0.00 0.38 0.21 80 1016.7
20260905011517 64 0 1.0 4.0 0.00 0.38 0.21 80 1016.4
20260905010515 64 0 1.0 3.0 0.00 0.38 0.21 80 1016.4
20260905005517 64 0 1.0 4.0 0.00 0.38 0.21 80 1016.5
20260905004537 64 0 1.0 4.0 0.00 0.38 0.21 80 1016.4
20260905003517 63 0 2.0 4.0 0.00 0.38 0.21 80 1016.4
20260905002517 63 0 2.0 9.0 0.00 0.38 0.21 80 1016.2
20260905001517 63 0 3.0 10.0 0.00 0.38 0.21 81 1016.3
20260905000537 63 0 2.0 8.0 0.00 0.38 0.21 81 1016.2
20260904235517 63 0 3.0 9.0 0.00 0.38 0.21 81 1016.2
20260904234537 63 0 1.0 4.0 0.00 0.38 0.21 81 1016.2
20260904233517 63 0 2.0 5.0 0.00 0.38 0.21 81 1016.2
20260904232517 63 0 2.0 6.0 0.00 0.38 0.21 81 1016.2
20260904231537 63 0 1.0 4.0 0.00 0.38 0.21 81 1016.3
20260904230517 63 0 2.0 10.0 0.00 0.38 0.21 81 1016.4
20260904225517 63 0 1.0 6.0 0.00 0.38 0.21 81 1016.2
20260904224517 63 0 2.0 4.0 0.00 0.38 0.21 80 1016.2
20260904223517 64 0 2.0 9.0 0.00 0.38 0.21 79 1016.3
20260904222537 64 0 3.0 5.0 0.00 0.38 0.21 78 1016.2
20260904221517 64 0 3.0 9.0 0.00 0.38 0.21 77 1016.2
20260904220517 64 0 3.0 9.0 0.00 0.38 0.21 77 1016.1
20260904215517 64 0 2.0 8.0 0.00 0.38 0.21 77 1015.9
20260904214517 64 0 3.0 8.0 0.00 0.38 0.21 78 1015.8
20260904213517 64 0 2.0 5.0 0.00 0.38 0.21 78 1015.8
20260904212517 64 0 3.0 8.0 0.00 0.38 0.21 78 1015.9
20260904211517 64 0 2.0 8.0 0.00 0.38 0.21 78 1015.9
20260904210517 64 0 3.0 9.0 0.00 0.38 0.21 78 1015.7
20260904205517 64 0 2.0 9.0 0.00 0.38 0.21 78 1015.6
20260904204517 64 0 2.0 6.0 0.00 0.38 0.21 78 1015.6
20260904203517 64 0 3.0 6.0 0.00 0.38 0.21 78 1015.6
20260904202517 64 0 2.0 8.0 0.00 0.38 0.21 78 1015.6
20260904201517 64 0 2.0 8.0 0.00 0.38 0.21 79 1015.6
20260904200516 64 0 3.0 9.0 0.00 0.38 0.21 79 1015.5
20260904195517 64 0 4.0 14.0 0.00 0.38 0.21 80 1015.5
20260904194516 64 0 4.0 11.0 0.00 0.38 0.21 80 1015.4
20260904193517 64 0 4.0 12.0 0.00 0.38 0.21 80 1015.3
20260904192517 64 0 5.0 13.0 0.00 0.38 0.21 80 1015.2
20260904191537 64 0 4.0 14.0 0.00 0.38 0.21 80 1015.0
20260904190517 64 0 4.0 11.0 0.00 0.38 0.21 79 1014.9
20260904185517 64 0 4.0 10.0 0.00 0.38 0.21 79 1015.0
20260904184517 64 0 3.0 10.0 0.00 0.38 0.21 79 1015.0
20260904183517 64 0 4.0 11.0 0.00 0.38 0.21 79 1014.9
20260904182516 64 0 4.0 12.0 0.00 0.38 0.21 79 1015.2
20260904181517 64 0 4.0 11.0 0.00 0.38 0.21 80 1015.2
20260904180516 64 0 3.0 10.0 0.00 0.38 0.21 80 1015.2
20260904175516 64 0 3.0 12.0 0.00 0.38 0.21 80 1015.1
20260904174516 63 0 3.0 11.0 0.00 0.38 0.21 81 1014.9
20260904173516 63 0 3.0 9.0 0.00 0.38 0.21 81 1015.1
20260904172536 63 0 4.0 11.0 0.00 0.38 0.21 81 1015.0
20260904171537 63 0 3.0 11.0 0.00 0.38 0.21 80 1014.8
20260904170556 64 0 2.0 10.0 0.00 0.38 0.21 81 1014.8
20260904165516 63 0 5.0 15.0 0.00 0.38 0.21 82 1014.8
20260904164517 63 0 3.0 9.0 0.00 0.38 0.21 82 1014.6
20260904163516 63 0 3.0 12.0 0.00 0.38 0.21 82 1014.6
20260904162536 63 0 3.0 13.0 0.00 0.38 0.21 82 1014.7
20260904161516 63 0 4.0 11.0 0.00 0.38 0.21 83 1014.6
20260904160516 63 0 3.0 9.0 0.00 0.38 0.21 83 1014.6
20260904155516 62 0 5.0 14.0 0.00 0.38 0.21 83 1014.5
20260904154516 62 0 4.0 10.0 0.00 0.38 0.21 82 1014.4
20260904153516 63 0 3.0 12.0 0.00 0.38 0.21 82 1014.4
20260904152516 63 0 4.0 11.0 0.00 0.38 0.21 82 1014.4
20260904151516 63 0 4.0 9.0 0.00 0.38 0.21 82 1014.2
20260904150516 63 0 4.0 14.0 0.00 0.38 0.21 82 1014.1
20260904145536 63 0 4.0 10.0 0.00 0.38 0.21 81 1014.0
20260904144516 63 0 4.0 15.0 0.00 0.38 0.21 81 1014.1
20260904143516 63 0 5.0 16.0 0.00 0.38 0.21 81 1014.0
20260904142516 63 0 4.0 10.0 0.00 0.38 0.21 81 1013.9
20260904141516 63 0 4.0 12.0 0.00 0.38 0.21 82 1013.9
20260904140516 63 0 3.0 9.0 0.00 0.38 0.21 82 1013.8
20260904135516 63 0 4.0 10.0 0.00 0.38 0.21 83 1013.8
20260904134536 63 0 4.0 12.0 0.00 0.38 0.21 83 1013.8
20260904133516 63 0 4.0 11.0 0.00 0.38 0.21 83 1013.5
20260904132516 63 0 3.0 11.0 0.00 0.38 0.21 83 1013.6
20260904131516 62 0 4.0 12.0 0.00 0.38 0.21 83 1013.2
20260904130516 62 0 4.0 11.0 0.00 0.38 0.21 84 1013.3
20260904125516 62 0 5.0 12.0 0.00 0.38 0.21 84 1013.1
20260904124516 62 0 4.0 10.0 0.00 0.38 0.21 84 1013.2
20260904123516 62 0 3.0 10.0 0.00 0.38 0.21 84 1013.2
20260904122516 62 0 4.0 9.0 0.00 0.38 0.21 85 1013.1
20260904121516 62 0 3.0 12.0 0.00 0.38 0.21 85 1013.0
20260904120536 62 0 4.0 11.0 0.00 0.38 0.21 85 1012.8
20260904115516 62 0 3.0 10.0 0.00 0.38 0.21 85 1012.6
20260904114516 62 0 3.0 8.0 0.00 0.38 0.21 85 1012.4
20260904113516 61 0 3.0 9.0 0.00 0.38 0.21 85 1012.4
20260904112516 61 0 3.0 9.0 0.00 0.38 0.21 85 1012.4
20260904111516 61 0 4.0 12.0 0.00 0.38 0.21 85 1012.4
20260904110656 61 0 3.0 9.0 0.00 0.38 0.21 85 1012.4
20260904105516 61 0 4.0 11.0 0.00 0.38 0.21 85 1012.4
20260904104516 61 0 3.0 9.0 0.00 0.38 0.21 85 1012.5
20260904103536 61 0 2.0 12.0 0.00 0.38 0.21 85 1012.6
20260904102516 61 0 3.0 13.0 0.00 0.38 0.21 85 1012.5
20260904101516 61 0 4.0 14.0 0.01 0.38 0.21 85 1012.5
20260904100515 61 0 3.0 10.0 0.01 0.38 0.21 85 1012.5
20260904095515 61 0 3.0 10.0 0.01 0.38 0.21 85 1012.3
20260904094536 61 0 4.0 10.0 0.01 0.38 0.21 85 1012.3
20260904093535 60 0 3.0 10.0 0.01 0.38 0.21 85 1012.4
20260904092515 60 0 4.0 13.0 0.02 0.38 0.21 85 1012.5
20260904091515 60 0 2.0 8.0 0.01 0.37 0.20 85 1012.7
20260904090516 61 0 4.0 10.0 0.03 0.37 0.20 84 1011.8
20260904085515 60 0 4.0 11.0 0.13 0.37 0.20 84 1012.2
20260904084516 60 0 3.0 9.0 0.14 0.37 0.20 84 1011.9
20260904083517 60 0 4.0 8.0 0.16 0.37 0.20 84 1012.3
20260904082517 60 0 3.0 9.0 0.17 0.36 0.19 83 1012.6
20260904081517 60 0 2.0 8.0 0.18 0.36 0.19 82 1013.6
20260904080537 60 0 4.0 11.0 0.17 0.34 0.17 81 1012.7
20260904075517 61 0 4.0 11.0 0.07 0.24 0.07 81 1014.2
20260904074516 61 0 4.0 13.0 0.06 0.23 0.06 80 1013.6
20260904073537 61 0 4.0 13.0 0.04 0.21 0.04 80 1013.3
20260904072517 61 0 3.0 9.0 0.02 0.19 0.02 79 1013.6
20260904071517 61 0 3.0 8.0 0.01 0.18 0.01 79 1013.5
20260904070537 61 0 4.0 11.0 0.00 0.17 0.00 78 1013.2
20260904065517 61 0 3.0 10.0 0.00 0.17 0.00 78 1013.5
20260904064517 62 0 3.0 10.0 0.00 0.17 0.00 78 1013.7
20260904063517 62 0 4.0 13.0 0.00 0.17 0.00 79 1013.8
20260904062517 62 0 4.0 12.0 0.00 0.17 0.00 79 1013.9
20260904061517 61 0 4.0 14.0 0.00 0.17 0.00 79 1014.1
20260904060517 61 0 3.0 8.0 0.00 0.17 0.00 80 1013.9
20260904055517 61 0 3.0 7.0 0.00 0.17 0.00 80 1014.2
20260904054517 61 0 2.0 10.0 0.00 0.17 0.00 80 1014.1
20260904053517 61 0 4.0 9.0 0.00 0.17 0.00 80 1013.9
20260904052517 61 0 4.0 9.0 0.00 0.17 0.00 80 1013.8
20260904051517 61 0 3.0 11.0 0.00 0.17 0.00 80 1014.0
20260904050517 61 0 4.0 14.0 0.01 0.17 0.00 80 1013.6
20260904045537 61 0 4.0 11.0 0.01 0.17 0.17 81 1013.2
20260904044537 61 0 4.0 10.0 0.01 0.17 0.17 81 1013.5
20260904043537 61 0 4.0 10.0 0.01 0.17 0.17 80 1013.3
20260904042517 61 0 3.0 13.0 0.01 0.17 0.17 80 1013.6
20260904041517 62 0 2.0 6.0 0.01 0.17 0.17 80 1014.0
20260904040517 62 0 3.0 9.0 0.01 0.16 0.16 79 1014.8
20260904035517 62 0 4.0 9.0 0.03 0.16 0.16 79 1014.5
20260904034517 62 0 3.0 12.0 0.09 0.16 0.16 80 1013.9
20260904033517 62 0 2.0 8.0 0.11 0.16 0.16 80 1014.7
20260904032517 62 0 1.0 4.0 0.12 0.16 0.16 79 1014.8
20260904031557 62 0 2.0 5.0 0.12 0.16 0.16 79 1014.3
20260904030517 62 0 2.0 6.0 0.11 0.15 0.15 79 1014.5